Regional Weather Roundup
Issued by NWS Lake Charles, LA

Current Version | Previous Version | Text Only | Print | Product List | Glossary On
Versions: 1 2 3 4 5 6 7 8 9 10 11 12 13 14 15 16 17 18 19 20 21 22 23 24 25 26 27 28 29 30 31 32 33 34 35 36 37 38 39 40 41 42 43 44 45 46 47 48 49 50
617
ASUS44 KLCH 222310
RWRLCH
REGIONAL WEATHER ROUNDUP
NATIONAL WEATHER SERVICE LAKE CHARLES LA
600 PM CDT SUN OCT 22 2017

Note: "fair" indicates few or no clouds below 12,000 feet with no
significant weather and/or obstructions to visibility.


ACROSS SOUTHEAST TEXAS

CITY           SKY/WX    TMP DP  RH WIND       PRES   REMARKS
BEAUMONT       PTCLDY    68  57  68 NW14      30.04S
BEAUMONT CITY  FAIR      70  59  67 CALM      30.07R
ORANGE         CLEAR     68  61  78 NW8       30.06S
JASPER         CLEAR     71  61  70 NW3       30.07R
$$

ACROSS CENTRAL LOUISIANA

CITY           SKY/WX    TMP DP  RH WIND       PRES   REMARKS
LEESVILLE      PTCLDY    67  58  73 NW7       30.03S
FULLERTON      FAIR      65  59  81 VRB3      30.01S
ALEXANDRIA INT PTCLDY    67  59  75 NW8       30.02R
ESLER FIELD    PTCLDY    67  60  78 NW7       30.02S
DERIDDER       FAIR      66  57  71 NW5       30.07R
OAKDALE        MOCLDY    67  60  76 NW7       30.03S
OPELOUSAS      NOT AVBL
$$

ACROSS SOUTHWEST AND SOUTH CENTRAL LOUISIANA

CITY           SKY/WX    TMP DP  RH WIND       PRES   REMARKS
SULPHUR        PTCLDY    68  59  73 N9        30.04F
LAKE CHARLES   PTCLDY    67  59  75 NW12      30.03F
CHENNAULT INT  PTCLDY    68  59  73 N14       30.04S
CAMERON PHI    PTCLDY    66  61  82 NW12      30.02F
DEQUINCY       FAIR      67  58  74 NW6       30.05S
JENNINGS       FAIR      65  61  84 W9        30.03R
LAFAYETTE      CLOUDY    68  61  78 W9        30.01R
NEW IBERIA     MOCLDY    68  60  75 W6        30.02R
ABBEVILLE      FAIR      66  64  94 NW6       30.01R
PATTERSON      CLOUDY    69  61  75 CALM      29.97F
SALT POINT       N/A     69  61  75 CALM      29.97F
$$

SELECTED SITES ACROSS THE REGION

CITY           SKY/WX    TMP DP  RH WIND       PRES   REMARKS
HOUSTON BUSH   PTCLDY    73  59  61 N9        30.07S
HOUSTON HOBBY  PTCLDY    74  58  57 N10       30.06S
GALVESTON      CLEAR     73  60  63 N17       30.06F
COLLEGE STAT   CLEAR     75  53  46 N10       30.09S
CONROE         CLEAR     73  59  61 NW7       30.07S
HUNTSVILLE     CLEAR     74  50  42 NW6       30.08R
LUFKIN         CLEAR     71  56  58 NW6       30.05S
SHREVEPORT     PTCLDY    70  57  63 NW9       30.03R
MONROE         CLEAR     67  57  70 NW7       30.03R
NATCHEZ MS     CLOUDY    67  61  81 W7        30.03R
BATON ROUGE    CLOUDY    69  58  67 S3        29.98R
N.O. INTL ARPT MOCLDY    73  61  65 E6        29.98F
SLIDELL        MOCLDY    71  62  73 CALM      29.98F
$$

MARINE REPORTS

STATION/POSITION TIME  SKY/WX   TEMP    WIND        PRES    VSBY
                                AIR SEA DIR/SP/G
                 (UTC)          (F)     (DEG/KT/KT) (MB)    (MI)
BUOY 30 S HIGH I 2150            70 79  340/ 16/ 17 1017.6
WVE H/P(F/S)=  4/ 5

SEA RIM ST PARK  2300            69     330/ 10/ 13 1018.1R
PORT ARTHUR      2242               76  330/  8/ 13 1017.6S
SABINE PASS N    2242               76  320/ 12/ 16 1018.9S
TEXAS POINT      NOT AVBL
CALCASIEU PASS   2242               74  350/ 10/ 15 1015.8F
LK CHARLES BEACH 2242               76              1016.6F
MARSH ISLAND     2200            73                   N/A
FRESH WATER LOCK 2242               75  260/  3/  4 1016.1R
AMERADA PASS     2242               76  100/  4/  7 1015.0F
$$




USA.gov is the U.S. government's official web portal to all federal, state and local government web resources and services.